This demonstration page uses our WeatherBlox Daily Observations layout. Learn more.

Left ArrowRight Arrow

39.12711, -84.51439

Hourly Observations for July 16, 2018

Temp ( °F °C ) Dew Point ( °F °C ) Humidity (%) Winds ( mph kmh ) Pressure ( in mb ) Visibility ( mi km ) Precip ( " mm )
12:53 am 00:53 Mostly Cloudy 74 23.3 74 23.3 100 100 Calm 30.00 1016 7 11 0.00 0.00
1:48 am 01:48 Cloudy 75 24 73 23 94 94 Calm 30.00 1016 7 11 0.00 0.00
1:53 am 01:53 Cloudy 76 24.4 74 23.3 94 94 Calm 30.00 1016 8 13 0.00 0.00
2:09 am 02:09 Cloudy 76 24.4 74 23.3 94 94 Calm 29.97 1015 9 14 0.00 0.00
2:53 am 02:53 Cloudy 76 24.4 73 22.8 91 91 Calm 29.98 1015 9 14 0.00 0.00
3:53 am 03:53 Cloudy 75 23.9 73 22.8 94 94 Calm 29.97 1015 9 14 0.00 0.00
4:53 am 04:53 Cloudy 75 23.9 73 22.8 94 94 Calm 29.97 1015 9 14 0.00 0.00
5:53 am 05:53 Mostly Clear 73 22.8 72 22.2 96 96 Calm 29.97 1015 8 13 0.00 0.00
6:30 am 06:30 Partly Cloudy with Fog 71 21.7 71 21.7 100 100 Calm 29.94 1014 1 1 0.00 0.00
6:41 am 06:41 Partly Cloudy with Mist and Fog 72 22.2 72 22.2 100 100 Calm 29.94 1014 3 4 0.00 0.00
6:48 am 06:48 Partly Cloudy with Mist and Fog 72 22 72 22 100 100 Calm 29.97 1015 6 10 0.00 0.00
6:53 am 06:53 Partly Cloudy with Mist and Fog 71 21.7 71 21.7 100 100 S 3 6 29.97 1015 6 10 0.00 0.00
7:21 am 07:21 Mostly Cloudy with Mist and Fog 72 22.2 72 22.2 100 100 Calm 29.97 1015 6 10 0.00 0.00
7:33 am 07:33 Mostly Cloudy with Mist and Fog 73 22.8 73 22.8 100 100 Calm 29.97 1015 6 10 0.00 0.00
7:53 am 07:53 Sunny with Mist and Fog 75 23.9 73 22.8 94 94 S 3 6 29.98 1015 6 10 0.00 0.00
8:53 am 08:53 Mostly Cloudy 76 24.4 73 22.8 91 91 S 6 9 29.97 1015 10 16 0.00 0.00
9:20 am 09:20 Partly Cloudy 78 25.6 73 22.8 85 85 S 6 9 29.97 1015 10 16 0.00 0.00
9:43 am 09:43 Mostly Cloudy 79 26.1 73 22.8 82 82 S 6 9 29.97 1015 10 16 0.00 0.00
9:53 am 09:53 Mostly Cloudy 80 26.7 73 22.8 79 79 S 7 11 29.98 1015 10 16 0.00 0.00
10:53 am 10:53 Mostly Cloudy 81 27.2 73 22.8 77 77 SE 6 9 29.98 1015 10 16 0.00 0.00
11:53 am 11:53 Mostly Cloudy 83 28.3 73 22.8 72 72 SSW 8 13 29.97 1015 10 16 0.00 0.00
12:00 pm 12:00 Mostly Cloudy 82 27.8 73 22.8 74 74 SSW 10 17 29.97 1015 10 16 0.00 0.00
12:53 pm 12:53 Cloudy with Light Rain 80 26.7 73 22.8 79 79 S 12 19 29.97 1015 10 16 0.00 0.03
1:53 pm 13:53 Mostly Cloudy 82 27.8 73 22.8 74 74 S 5 7 29.94 1014 10 16 0.00 0.03
2:53 pm 14:53 Mostly Cloudy 83 28.3 73 22.8 72 72 Calm 29.91 1013 10 16 0.00 0.00
3:53 pm 15:53 Mostly Cloudy 85 29.4 72 22.2 65 65 SSW 3 6 29.90 1013 10 16 0.00 0.00
4:53 pm 16:53 Cloudy 86 30 73 22.8 65 65 VRB 3 6 29.87 1012 10 16 0.00 0.00
5:53 pm 17:53 Cloudy 88 31.1 73 22.8 61 61 WNW 5 7 29.87 1011 10 16 0.00 0.00
6:53 pm 18:53 Mostly Cloudy 86 30 76 24.4 72 72 S 8 13 29.86 1011 10 16 0.00 0.00
7:53 pm 19:53 Mostly Cloudy 86 30 73 22.8 65 65 W 8 13 29.86 1011 10 16 0.00 0.00
8:53 pm 20:53 Mostly Cloudy 83 28.3 73 22.8 72 72 N 13 20 29.88 1012 10 16 0.00 0.00
9:53 pm 21:53 Clear 80 26.7 72 22.2 76 76 Calm 29.90 1013 10 16 0.00 0.00
10:53 pm 22:53 Clear 76 24.4 73 22.8 91 91 SE 3 6 29.91 1013 10 16 0.00 0.00
11:53 pm 23:53 Partly Cloudy 74 23.3 73 22.8 97 97 SSE 3 6 29.92 1013 10 16 0.00 0.00

Powered by AerisWeather